Погода в Луговском

Россия / Свердловская область     56°57′32″N   64°31′36″E
темп.,
°C
ветер,
м/с
пор.,
м/с
влажн.,
%
обл.,
%
осадки,
мм/ч
давл.,
гПа
погр.,
м
17 сентября, пт
пт1723:00+5зюз410875 0.0 999451
02:00+5зюз488393 0.0 998734
05:00+4зюз3696100 0.4 997907
08:00+4з3793100 0.9 997626
11:00+6зсз588889 1.3 998772
14:00+5зсз5994100 0.3 1000963
17:00+5сз5992100 0.6 10021041
20:00+4сз51094100 0.1 1004843
18 сентября, сб
сб1823:00+4зсз4990100 0.2 1005566
02:00+3з41089100 0.0 1005457
05:00+3з4989100 0.0 1006406
08:00+3з4986100 0.0 1006366
11:00+7зсз4661100 0.0 10061098
14:00+8з4654100 0.3 10061355
17:00+7з4763100 0.5 10051108
20:00+3з398430 0.1 1006309
19 сентября, вс
вс1923:00+2з5128260 0.1 1005480
02:00+2з5128867 0.0 1004680
05:00+2з51296100 0.1 1003774
08:00+1з61497100 1.3 1002841
11:00+2зсз61496100 3.3 1002772
14:00+3зсз71391100 0.4 10041218
17:00+3сз61391100 0.9 10071187
20:00+3сз61294100 0.2 10101049
20 сентября, пн
пн2023:00+2сз5118876 0.3 1013944
02:00+2сз5119079 0.0 1016657
05:00+2сз498797 0.0 1018579
08:00+2зсз2798100 0.1 1020472
11:00+3сз3698100 0.4 1023474
14:00+4ссз4685100 0.3 1025786
17:00+4ссз3585100 0.7 1026679
20:00+3сз2694100 0.2 1028244
21 сентября, вт
вт2123:000ссз23977 0.2 102967
02:00−1сз229679 0.0 103047
05:000з249590 0.0 1030112
08:00+1з249344 0.0 1031154
11:00+6з347429 0.0 1030808
14:00+8з345935 0.0 10291187
17:00+8з3561100 0.0 1027985
20:00+4юз2279100 0.0 102722